When you browse on this site, cookies collect data to enhance your experience and personalize the content and advertising you see.
Visit our Privacy Policy to learn more. By continuing to use the site, you agree to this use of cookies and data.
  • In Deutschland
  • Länderverzeichnis
  • Für 7 Tage
  • Wassertemperatur
  • Wetterkarte
  • Widgets
  • user-avatar
    Anmelden

    Stündliche Wetter Ezhovskiy

    Heute, 22 Oktober, Dienstag

    Zeit Temperatur Niederschläge Wind Luftdruck Luftfeuchtigkeit
    00:00 +2°C° 0.1 mm 5 m/S 738 mmHg 95%
    01:00 +2°C° 0.1 mm 5 m/S 737 mmHg 95%
    02:00 +3°C° 0.1 mm 6 m/S 736 mmHg 94%
    03:00 +3°C° 0.1 mm 6 m/S 735 mmHg 92%
    04:00 +3°C° 0 mm 7 m/S 734 mmHg 89%
    05:00 +4°C° 0.7 mm 7 m/S 733 mmHg 89%
    06:00 +4°C° 0.7 mm 7 m/S 733 mmHg 89%
    07:00 +4°C° 0.7 mm 7 m/S 732 mmHg 90%
    08:00 +5°C° 0.3 mm 6 m/S 732 mmHg 89%
    09:00 +5°C° 0.3 mm 6 m/S 732 mmHg 88%
    10:00 +5°C° 0.3 mm 6 m/S 732 mmHg 88%
    11:00 +5°C° 0 mm 5 m/S 733 mmHg 85%
    12:00 +3°C° 0 mm 5 m/S 733 mmHg 82%
    13:00 +2°C° 0 mm 5 m/S 733 mmHg 79%
    14:00 +2°C° 0 mm 5 m/S 734 mmHg 80%
    15:00 +1°C° 0 mm 5 m/S 734 mmHg 82%
    16:00 +1°C° 0 mm 4 m/S 735 mmHg 83%
    17:00 0°C° 0 mm 4 m/S 735 mmHg 84%
    18:00 0°C° 0 mm 4 m/S 735 mmHg 86%
    19:00 -1°C° 0 mm 4 m/S 736 mmHg 87%
    20:00 -1°C° 0 mm 4 m/S 736 mmHg 87%
    21:00 -2°C° 0 mm 4 m/S 736 mmHg 88%
    22:00 -2°C° 0 mm 4 m/S 736 mmHg 88%
    23:00 -3°C° 0 mm 4 m/S 736 mmHg 88%

    Morgen, 23 Oktober, Mittwoch

    Zeit Temperatur Niederschläge Wind Luftdruck Luftfeuchtigkeit
    00:00 -2°C° 0 mm 3 m/S 736 mmHg 88%
    01:00 -2°C° 0 mm 3 m/S 736 mmHg 88%
    02:00 -4°C° 0 mm 3 m/S 736 mmHg 89%
    03:00 -4°C° 0 mm 3 m/S 737 mmHg 89%
    04:00 -4°C° 0 mm 3 m/S 737 mmHg 89%
    05:00 -4°C° 0 mm 3 m/S 737 mmHg 89%
    06:00 -4°C° 0 mm 3 m/S 737 mmHg 88%
    07:00 -5°C° 0 mm 3 m/S 737 mmHg 88%
    08:00 -4°C° 0 mm 3 m/S 736 mmHg 85%
    09:00 -3°C° 0 mm 4 m/S 736 mmHg 83%
    10:00 -3°C° 0 mm 4 m/S 736 mmHg 80%
    11:00 -2°C° 0 mm 4 m/S 735 mmHg 79%
    12:00 -1°C° 0 mm 5 m/S 735 mmHg 77%
    13:00 0°C° 0 mm 5 m/S 734 mmHg 75%
    14:00 0°C° 0 mm 5 m/S 734 mmHg 78%
    15:00 0°C° 0 mm 5 m/S 733 mmHg 81%
    16:00 -1°C° 0 mm 6 m/S 733 mmHg 83%
    17:00 +1°C° 0.1 mm 6 m/S 732 mmHg 86%
    18:00 +1°C° 0.1 mm 6 m/S 732 mmHg 88%
    19:00 +2°C° 0.1 mm 6 m/S 731 mmHg 90%
    20:00 +2°C° 0.1 mm 6 m/S 731 mmHg 89%
    21:00 +3°C° 0.1 mm 6 m/S 730 mmHg 88%
    22:00 +3°C° 0.1 mm 6 m/S 729 mmHg 87%
    23:00 +3°C° 0.1 mm 6 m/S 729 mmHg 88%

    übermorgen, 24 Oktober, Donnerstag

    Zeit Temperatur Niederschläge Wind Luftdruck Luftfeuchtigkeit
    00:00 +4°C° 0.1 mm 6 m/S 729 mmHg 89%
    01:00 +5°C° 0.1 mm 5 m/S 729 mmHg 90%
    02:00 +5°C° 0.2 mm 5 m/S 730 mmHg 89%
    03:00 +3°C° 0.2 mm 5 m/S 730 mmHg 88%
    04:00 +4°C° 0.2 mm 4 m/S 731 mmHg 87%
    05:00 +3°C° 0 mm 4 m/S 731 mmHg 89%
    06:00 +1°C° 0 mm 4 m/S 732 mmHg 90%
    07:00 +1°C° 0 mm 3 m/S 733 mmHg 92%
    08:00 +1°C° 0 mm 4 m/S 733 mmHg 89%
    09:00 +1°C° 0 mm 4 m/S 734 mmHg 86%
    10:00 +1°C° 0 mm 4 m/S 734 mmHg 83%
    11:00 +1°C° 0 mm 4 m/S 735 mmHg 82%
    12:00 +3°C° 0 mm 4 m/S 735 mmHg 81%
    13:00 +3°C° 0 mm 4 m/S 735 mmHg 80%
    14:00 +1°C° 0 mm 4 m/S 736 mmHg 81%
    15:00 +1°C° 0 mm 4 m/S 736 mmHg 81%
    16:00 +1°C° 0 mm 4 m/S 736 mmHg 82%
    17:00 +1°C° 0 mm 3 m/S 736 mmHg 85%
    18:00 0°C° 0 mm 3 m/S 737 mmHg 89%
    19:00 +1°C° 0 mm 2 m/S 737 mmHg 93%
    20:00 -1°C° 0 mm 2 m/S 737 mmHg 93%
    21:00 -1°C° 0 mm 2 m/S 738 mmHg 94%
    22:00 -1°C° 0 mm 2 m/S 738 mmHg 94%
    23:00 -1°C° 0 mm 2 m/S 738 mmHg 93%

    25 Oktober, Freitag

    Zeit Temperatur Niederschläge Wind Luftdruck Luftfeuchtigkeit
    00:00 -1°C° 0 mm 3 m/S 738 mmHg 91%
    01:00 -1°C° 0 mm 3 m/S 738 mmHg 90%
    02:00 -1°C° 0 mm 3 m/S 738 mmHg 89%
    03:00 -1°C° 0 mm 3 m/S 738 mmHg 89%
    04:00 0°C° 0 mm 3 m/S 738 mmHg 89%
    05:00 0°C° 0 mm 3 m/S 738 mmHg 90%
    06:00 0°C° 0 mm 3 m/S 738 mmHg 91%
    07:00 0°C° 0 mm 3 m/S 738 mmHg 92%
    08:00 0°C° 0 mm 3 m/S 738 mmHg 91%
    09:00 +1°C° 0 mm 3 m/S 738 mmHg 91%
    10:00 +1°C° 0 mm 3 m/S 738 mmHg 90%
    11:00 0°C° 0.1 mm 4 m/S 738 mmHg 90%
    12:00 0°C° 0.1 mm 4 m/S 738 mmHg 91%
    13:00 +1°C° 0.1 mm 4 m/S 738 mmHg 92%
    14:00 +1°C° 0 mm 4 m/S 738 mmHg 92%
    15:00 +1°C° 0 mm 4 m/S 738 mmHg 92%
    16:00 +1°C° 0 mm 4 m/S 738 mmHg 92%
    17:00 +1°C° 0.1 mm 4 m/S 738 mmHg 92%
    18:00 +3°C° 0.1 mm 4 m/S 738 mmHg 92%
    19:00 +3°C° 0.1 mm 4 m/S 738 mmHg 92%
    20:00 +3°C° 0 mm 4 m/S 738 mmHg 92%
    21:00 +3°C° 0 mm 4 m/S 738 mmHg 91%
    22:00 +3°C° 0 mm 4 m/S 738 mmHg 91%
    23:00 +3°C° 0 mm 4 m/S 738 mmHg 91%

    26 Oktober, Samstag

    Zeit Temperatur Niederschläge Wind Luftdruck Luftfeuchtigkeit
    00:00 +3°C° 0 mm 4 m/S 738 mmHg 92%
    01:00 +3°C° 0 mm 4 m/S 739 mmHg 93%
    02:00 +3°C° 0 mm 3 m/S 739 mmHg 93%
    03:00 +3°C° 0 mm 3 m/S 740 mmHg 93%
    04:00 +3°C° 0 mm 3 m/S 740 mmHg 94%
    05:00 +4°C° 0 mm 2 m/S 740 mmHg 94%
    06:00 +4°C° 0 mm 2 m/S 740 mmHg 95%
    07:00 +4°C° 0 mm 2 m/S 741 mmHg 96%
    08:00 +4°C° 0 mm 2 m/S 741 mmHg 94%
    09:00 +3°C° 0 mm 3 m/S 741 mmHg 93%
    10:00 +4°C° 0 mm 3 m/S 741 mmHg 92%
    11:00 +4°C° 0 mm 3 m/S 741 mmHg 89%
    12:00 +5°C° 0 mm 4 m/S 741 mmHg 86%
    13:00 +5°C° 0 mm 4 m/S 741 mmHg 84%
    14:00 +5°C° 0 mm 4 m/S 740 mmHg 84%
    15:00 +5°C° 0 mm 4 m/S 740 mmHg 84%
    16:00 +5°C° 0 mm 4 m/S 739 mmHg 84%
    17:00 +5°C° 0 mm 5 m/S 739 mmHg 84%
    18:00 +5°C° 0 mm 5 m/S 738 mmHg 85%
    19:00 +5°C° 0 mm 6 m/S 738 mmHg 85%
    20:00 +5°C° 0 mm 6 m/S 738 mmHg 86%
    21:00 +7°C° 0 mm 6 m/S 737 mmHg 87%
    22:00 +7°C° 0 mm 6 m/S 737 mmHg 88%
    23:00 +7°C° 0.1 mm 6 m/S 736 mmHg 87%

    27 Oktober, Sonntag

    Zeit Temperatur Niederschläge Wind Luftdruck Luftfeuchtigkeit
    00:00 +8°C° 0.1 mm 6 m/S 736 mmHg 87%
    01:00 +8°C° 0.1 mm 5 m/S 736 mmHg 87%
    02:00 +7°C° 0 mm 6 m/S 735 mmHg 86%
    03:00 +7°C° 0 mm 6 m/S 735 mmHg 86%
    04:00 +7°C° 0 mm 6 m/S 735 mmHg 86%
    05:00 +7°C° 0 mm 6 m/S 735 mmHg 85%
    06:00 +7°C° 0 mm 6 m/S 735 mmHg 85%
    07:00 +7°C° 0 mm 6 m/S 735 mmHg 84%
    08:00 +8°C° 0 mm 6 m/S 735 mmHg 82%
    09:00 +8°C° 0 mm 6 m/S 734 mmHg 80%
    10:00 +8°C° 0 mm 6 m/S 734 mmHg 78%
    11:00 +9°C° 0 mm 6 m/S 734 mmHg 73%
    12:00 +10°C° 0 mm 7 m/S 733 mmHg 68%
    13:00 +10°C° 0 mm 7 m/S 733 mmHg 62%
    14:00 +10°C° 0 mm 7 m/S 733 mmHg 65%
    15:00 +10°C° 0 mm 7 m/S 732 mmHg 68%
    16:00 +10°C° 0 mm 7 m/S 732 mmHg 71%
    17:00 +9°C° 0 mm 7 m/S 731 mmHg 72%
    18:00 +9°C° 0 mm 7 m/S 731 mmHg 73%
    19:00 +9°C° 0 mm 7 m/S 731 mmHg 74%
    20:00 +8°C° 0 mm 7 m/S 730 mmHg 75%
    21:00 +8°C° 0 mm 7 m/S 730 mmHg 75%
    22:00 +8°C° 0 mm 7 m/S 730 mmHg 76%
    23:00 +8°C° 0 mm 7 m/S 729 mmHg 76%

    28 Oktober, Montag

    Zeit Temperatur Niederschläge Wind Luftdruck Luftfeuchtigkeit
    00:00 +8°C° 0 mm 7 m/S 729 mmHg 77%
    01:00 +8°C° 0 mm 7 m/S 728 mmHg 77%
    02:00 +8°C° 0.2 mm 7 m/S 728 mmHg 78%
    03:00 +8°C° 0.2 mm 7 m/S 728 mmHg 79%
    04:00 +8°C° 0.2 mm 7 m/S 727 mmHg 79%
    05:00 +6°C° 0.4 mm 7 m/S 727 mmHg 80%
    06:00 +6°C° 0.4 mm 7 m/S 727 mmHg 82%
    07:00 +6°C° 0.4 mm 7 m/S 726 mmHg 83%
    08:00 +6°C° 0.4 mm 7 m/S 726 mmHg 84%
    09:00 +7°C° 0.4 mm 6 m/S 726 mmHg 85%
    10:00 +7°C° 0.4 mm 6 m/S 726 mmHg 86%
    11:00 +7°C° 0.6 mm 5 m/S 726 mmHg 87%
    12:00 +7°C° 0.6 mm 5 m/S 726 mmHg 88%
    13:00 +6°C° 0.6 mm 4 m/S 726 mmHg 89%
    14:00 +6°C° 0.8 mm 4 m/S 725 mmHg 90%
    15:00 +5°C° 0.8 mm 3 m/S 725 mmHg 91%
    16:00 +6°C° 0.8 mm 2 m/S 725 mmHg 93%
    17:00 +5°C° 0.6 mm 2 m/S 725 mmHg 93%
    18:00 +5°C° 0.6 mm 2 m/S 725 mmHg 93%
    19:00 +4°C° 0.6 mm 2 m/S 725 mmHg 93%
    20:00 +4°C° 0.1 mm 2 m/S 725 mmHg 93%
    21:00 +3°C° 0.1 mm 2 m/S 725 mmHg 93%
    22:00 +3°C° 0.1 mm 2 m/S 725 mmHg 92%
    23:00 +3°C° 0.1 mm 2 m/S 725 mmHg 92%
    Mehr zeigen